Location: Banff
(51.1667°N, 115.5667°W)
Time: 09:05:08
(UTC+00:00)

N. Korean satellite - Pass Details

Date: 29 November 2022
Orbit: 407 x 444 km, 97.3° (Epoch: 28 January)

Event Time Altitude Azimuth Distance (km) Brightness Sun altitude
Rises 12:55:27 0° 16° (NNE) 2,531 10.3 -22.0°
Reaches altitude 10° 12:57:33 10° 20° (NNE) 1,647 9.4 -21.7°
Maximum altitude 13:01:03 57° 101° (E) 559 7.1 -21.2°
Drops below altitude 10° 13:04:29 10° 181° (S) 1,620 9.3 -20.6°
Sets 13:06:32 0° 185° (S) 2,483 10.2 -20.3°
